Regional Weather Roundup
Issued by NWS Newport/Morehead, NC

Current Version | Previous Version | Graphics & Text | Print | Product List | Glossary On
Versions: 1 2 3 4 5 6 7 8 9 10 11 12 13 14 15 16 17 18 19 20 21 22 23 24 25 26 27 28 29 30 31 32 33 34 35 36 37 38 39 40 41 42 43 44 45 46 47 48 49 50
000 ASUS42 KMHX 171325 RWRMHX WEATHER ROUNDUP FOR EASTERN NORTH CAROLINA NATIONAL WEATHER SERVICE NEWPORT/MOREHEAD CITY NC 900 AM EDT TUE OCT 17 2017 NOTE: "FAIR" INDICATES FEW OR NO CLOUDS BELOW 12,000 FEET WITH NO SIGNIFICANT WEATHER AND/OR OBSTRUCTIONS TO VISIBILITY NCZ015>017-031-032-045>047-102-103-171400- NORTH COAST CITY SKY/WX TMP DP RH WIND PRES REMARKS EDENTON MOSUNNY 53 47 78 N7 30.31R ELIZABETH CITY MOSUNNY 56 48 74 N18 30.29R KITTY HAWK PTSUNNY 59 44 58 NE14G24 30.25R MANTEO CLOUDY N/A N/A N/A NE16G25 30.27R $$ NCZ045>047-081-094-103-104-171400- CENTRAL COAST CITY SKY/WX TMP DP RH WIND PRES REMARKS FRISCO MOSUNNY 62 49 62 NE16G25 30.22R $$ NCZ095-097-098-100-101-171400- SOUTHERN COAST CITY SKY/WX TMP DP RH WIND PRES REMARKS BEAUFORT CLOUDY 59 50 72 N12 30.24R CEDAR ISLAND NOT AVBL JACKSONVILLE CLOUDY 51 44 77 N10 30.28R PINEY ISLAND N/A N/A N/A N/A N18G25 30.25R WILMINGTON CLOUDY 52 43 71 N13 30.27R $$ NCZ011>013-027>030-043-044-078>080-089-090>093-098-171400- COASTAL PLAIN CITY SKY/WX TMP DP RH WIND PRES REMARKS AHOSKIE SUNNY 48 42 80 N8 30.34R CLINTON MOSUNNY 51 42 70 N9 30.32R ELIZABETHTOWN NOT AVBL GOLDSBORO SUNNY 51 41 67 N10 30.30R GREENVILLE SUNNY 50 43 76 N9 30.32R HAVELOCK CLOUDY 55 48 77 N14 30.28R KENANSVILLE MOSUNNY 52 43 71 NE7 30.32R KINSTON SUNNY 50 43 76 N9 30.32R NEW BERN PTSUNNY 54 46 74 N13 30.29R RICHLANDS PTSUNNY 51 43 74 N9 30.30R ROCKY MOUNT SUNNY 50 42 74 N13 30.33R WASHINGTON SUNNY 51 45 79 N9 30.30R WHITEVILLE CLOUDY 50 42 72 N6 30.30R $$ AMZ130-135-150-152-154-156-158-170-250-252-270-ANZ085-086-088-633-658-670-171400- MARINE OBSERVATIONS STATION/POSITION TIME TEMP WIND PRES WAVE SWELL AIR SEA DIR/SP/G HT/PER HT/PER (UTC) (F) (DEG/KT/KT) (MB) (FT/S) (FT/S) CHESAPEAKE LIGHT NOT AVBL 64 E VA BEACH 1250 58 68 10/ 21/ 27 1024.4 9/ 8 DUCK 1300 59 69 20/ 21/ 26 1024.4 2 E DUCK 1300 71 N/A 8/ 8 2/11 OREGON INLET 1300 60 68 10/ 16/ 25 1024.1 13E OREGON INLT 1248 72 N/A 9/ 7 3/11 HATTERAS CG 1300 62 70 30/ 17/ 25 1023.5 DIAMOND BUOY 1250 65 81 20/ 25/ 29 1021.9 9/ 9 5/ 9 CAPE LOOKOUT 1200 61 10/ 18/ 22 1022.0 BEAUFORT LAB 1300 58 73 360/ 15/ 19 1024.5 30 SE NEW RVR IN 1208 64 20/ 21/ 29 1021.8 30 SE NEW RVR IN NOT AVBL 27 SE WRIGHTSVLE 1308 64 77 60/ 21/ 29 1022.9 5 SE WRIGHTSVLE 1308 59 76 30/ 19/ 33 1024.4 225 S CAPE HAT 1150 76 80 30/ 25/ 29 1015.1 9/ 7 2/11 41 SE CHARLESTON 1250 69 80 30/ 25/ 29 1021.0 9/ 8 3/11 $$

USA.gov is the U.S. government's official web portal to all federal, state and local government web resources and services.